Starlink 31307

operational
NORAD ID: 59089 Int'l Des: 2024-041 Owner: SPXS Country: US Constellation: starlink
LEOCIRCULAR

Starlink 31307について

説明を読み込み中...

リアルタイム位置

3D地球を読み込み中...

次回通過

高度履歴

Altitude vs Time

uPlot chart will show altitude changes over time

軌道要素

1 59089U 24041R 25302.98257400 -.00001146 00000-0 -32157-4 0 9995
2 59089 43.0030 328.6920 0001086 280.2043 79.8686 15.27569402 94331
Epoch: Oct 29, 2025 • Age: 22 hours

現在のステータス

高度 482.2 km
速度 7.63 km/s
衛星直下点 14.95°N, 24.13°W
打ち上げ日 Feb 29, 2024
運用期間 1.6 years
タイプ internet

技術仕様

分類 Payload
質量 730.00 kg
乾燥質量 700.00 kg
総質量 730.00 kg
長さ 0.30 m
直径 4.10 m
スパン 29.00 m
形状 Box + pan
製造者 SPXS
バスタイプ Starlink V2M
フェーズステータス In Orbit
所有者/国 SPXS/US

大規模コンステレーション

Loading constellations...